VTSBVTSP [TG216]

Details From VTSB - Surat Thani
To VTSP - Phuket Intl
Flight Number TG216
Tags generated
Created
Modified
Stats Distance 78 nm / 145 km
Max Altitude 0 ft / 0 m
Waypoints 3
Social Downloads 0
Likes 0
Share VATSIM

Download

Looking for another format? Having issues loading an existing format? Contact us
Advertisement - Login to hide

Notes

Basic altitude profile: - Ascent Rate: 2500ft/min - Ascent Speed: 250kts - Cruise Altitude: 35000ft - Cruise Speed: 420kts - Descent Rate: 1500ft/min - Descent Speed: 250kts Options: - Use NATs: yes - Use PACOTS: yes - Use low airways: yes - Use high airways: yes

Route

VTSB STN VTSP

ID Type Via Altitude Latitude Longitude Leg Dist Tot Dist Heading (true) Name
O VTSB APT - 0 ft / 0 m 9.13260˚ 99.13559˚ - 0 nm - Surat Thani
STN VOR - 0 ft / 0 m 9.12951˚ 99.13475˚ 0 nm 0 nm 195° / 195° SURAT THANI VOR-DME
O VTSP APT - 0 ft / 0 m 8.11320˚ 98.31687˚ 77 nm 78 nm 219° / 218° Phuket Intl

Altitude Profile

Advertisement - Login to hide

VTSB

Details ICAO VTSB (URT)
Name Surat Thani
Region Thailand
Timezone Asia/Bangkok (UTC+7.0)
Stats Elevation 20 ft / 6 m (AMSL)
Location 9.132603° 99.135586°
Runways 1
Magnetic Variation 0.404° W

METAR

VTSB 230700Z 07007KT 9999 SCT020 33/26 Q1007

Decode

TAF

TAF VTSB 230500Z 2306/2406 06008KT 9999 SCT020 BKN100 TEMPO 2306/2312 VRB10G20KT 6000 -TSRA FEW016CB SCT018 BKN100 BECMG 2320/2322 5000 BR BECMG 2401/2403 9999 NSW

Decode

Departure Runways

ID Width Length Bearing (true) Bearing (mag) Surface Threshold Offset Overrun Length
04 148 ft / 45 m 9,912 ft / 3,021 m 43.98° 44.38° Asphalt 0 ft / 0 m 250 ft / 76 m
22 148 ft / 45 m 9,912 ft / 3,021 m 223.99° 224.39° Asphalt 0 ft / 0 m 230 ft / 70 m

VTSP

Details ICAO VTSP (HKT)
Name Phuket Intl
Region Thailand
Timezone Asia/Bangkok (UTC+7.0)
Stats Elevation 82 ft / 25 m (AMSL)
Location 8.113199° 98.316871°
Runways 1
Magnetic Variation 0.423° W

METAR

VTSP 230730Z 12006KT 360V170 9999 FEW020 33/23 Q1006 NOSIG

Decode

TAF

TAF VTSP 230500Z 2306/2412 09010KT 9999 SCT020 BECMG 2310/2312 28008KT 8000 TEMPO 2313/2318 VRB10G20KT 5000 TSRA FEW018CB SCT020 BKN100 BECMG 2402/2404 08008KT 9999

Decode

Destination Runways

ID Width Length Bearing (true) Bearing (mag) Surface Threshold Offset Overrun Length
09 148 ft / 45 m 9,870 ft / 3,008 m 84.45° 84.87° Asphalt 0 ft / 0 m 197 ft / 60 m
27 148 ft / 45 m 9,870 ft / 3,008 m 264.46° 264.88° Asphalt 0 ft / 0 m 197 ft / 60 m

Approach Navaids

Runway Type Ident Frequency Range Bearing (true) Bearing (mag) Slope Elevation
27 Localiser IPKT 109.90 MHz 18 nm / 33 km 263.45° 263.88° - 19 ft / 6 m (AMSL)
27 Glidescope IPKT 109.90 MHz 10 nm / 19 km 263.45° 263.88° 3.20° 82 ft / 25 m (AMSL)
27 DME IPKT 109.90 MHz 18 nm / 33 km - - - 82 ft / 25 m (AMSL)

Popular Alternatives